Boston, MA

1:10 PM EDT on June 23, 2018 (GMT -0400)
Logan International

Weather History for KBOS - November, 2017

Change the Weather History Date:

Wednesday, November 1, 2017

  Actual Average Record
Temperature  
Mean Temperature 47 °F 49 °F  
Max Temperature 53 °F 56 °F 77 °F (1974)
Min Temperature 41 °F 42 °F 26 °F (1885)
Degree Days  
Heating Degree Days 18 16  
Month to date heating degree days 18 16  
Since 1 July heating degree days 212 463  
Cooling Degree Days 0 0  
Month to date cooling degree days 0 0  
Year to date cooling degree days 880 747  
Moisture  
Dew Point 39 °F    
Average Humidity 69    
Maximum Humidity 83    
Minimum Humidity 54    
Precipitation  
Precipitation 0.00 in 0.13 in 2.67 in (1895)
Month to date precipitation 0.00 0.13  
Year to date precipitation 39.16 36.13  
Sea Level Pressure  
Sea Level Pressure 30.34 in    
Wind  
Wind Speed 7 mph (SE)    
Max Wind Speed 12 mph    
Max Gust Speed 15 mph    
Visibility 10 miles    
Events      
T = Trace of Precipitation, MM = Missing Value Source: NWS Daily Summary

Daily Weather History Graph

Daily Weather History Graph

Search for Another Location

Airport or City:

Astronomy

Nov. 01, 2017 Rise Set
Actual Time 7:17 AM EDT 5:36 PM EDT
Civil Twilight 6:48 AM EDT 6:06 PM EDT
Nautical Twilight 6:15 AM EDT 6:39 PM EDT
Astronomical Twilight 5:42 AM EDT 7:11 PM EDT
Moon 4:36 PM EDT (11/1) 3:58 AM EDT (11/1)
Length of Visible Light 11h 17m
Length of Day
10h 19m
Waxing Gibbous, 91% of the Moon is Illuminated
Nov 1
Waxing Gibbous
Nov 4
Full
Nov 10
Last Quarter
Nov 18
New
Nov 26
First Quarter

Hourly Weather History & Observations

Time (EDT) Temp. Windchill Dew Point Humidity Pressure Visibility Wind Dir Wind Speed Gust Speed Precip Events Conditions
12:54 AM 46.9 °F - 33.1 °F 59% 30.23 in 10.0 mi SW 5.8 mph - N/A   Scattered Clouds
1:54 AM 46.9 °F - 32.0 °F 56% 30.25 in 10.0 mi WNW 3.5 mph - N/A   Mostly Cloudy
2:54 AM 46.0 °F 41.0 °F 32.0 °F 58% 30.26 in 10.0 mi WNW 10.4 mph - N/A   Mostly Cloudy
3:54 AM 45.0 °F 40.1 °F 30.9 °F 58% 30.28 in 10.0 mi WNW 9.2 mph - N/A   Mostly Cloudy
4:54 AM 45.0 °F 40.1 °F 32.0 °F 60% 30.29 in 10.0 mi West 9.2 mph - N/A   Scattered Clouds
5:54 AM 44.1 °F 41.5 °F 32.0 °F 63% 30.30 in 10.0 mi West 4.6 mph - N/A   Scattered Clouds
6:54 AM 42.1 °F 39.2 °F 34.0 °F 73% 30.32 in 10.0 mi SSW 4.6 mph - N/A   Scattered Clouds
7:54 AM 44.1 °F - 36.0 °F 73% 30.35 in 10.0 mi Calm Calm - N/A   Mostly Cloudy
8:54 AM 46.0 °F 44.8 °F 32.0 °F 58% 30.38 in 10.0 mi West 3.5 mph - N/A   Mostly Cloudy
9:54 AM 48.0 °F - 32.0 °F 54% 30.39 in 10.0 mi Calm Calm - N/A   Mostly Cloudy
10:54 AM 48.9 °F - 37.0 °F 64% 30.39 in 10.0 mi SE 3.5 mph - N/A   Overcast
11:54 AM 48.9 °F - 36.0 °F 61% 30.38 in 10.0 mi ESE 4.6 mph - N/A   Overcast
12:54 PM 48.9 °F - 37.9 °F 66% 30.38 in 10.0 mi East 5.8 mph - N/A   Overcast
1:54 PM 50.0 °F - 39.9 °F 68% 30.37 in 10.0 mi ENE 8.1 mph - N/A   Overcast
2:54 PM 51.1 °F - 41.0 °F 68% 30.37 in 10.0 mi ENE 8.1 mph - N/A   Mostly Cloudy
3:54 PM 52.0 °F - 43.0 °F 71% 30.37 in 10.0 mi ENE 8.1 mph - N/A   Overcast
4:54 PM 51.1 °F - 43.0 °F 74% 30.37 in 10.0 mi East 6.9 mph - N/A   Overcast
5:54 PM 52.0 °F - 42.1 °F 69% 30.36 in 10.0 mi East 6.9 mph - N/A   Mostly Cloudy
6:54 PM 52.0 °F - 45.0 °F 77% 30.36 in 10.0 mi ESE 3.5 mph - N/A   Overcast
7:54 PM 53.1 °F - 45.0 °F 74% 30.37 in 10.0 mi SSE 9.2 mph - N/A   Overcast
8:54 PM 53.1 °F - 46.0 °F 77% 30.36 in 10.0 mi SE 9.2 mph - N/A   Overcast
9:54 PM 52.0 °F - 46.9 °F 83% 30.35 in 10.0 mi SE 11.5 mph - N/A   Scattered Clouds
10:54 PM 52.0 °F - 46.9 °F 83% 30.36 in 10.0 mi SSE 9.2 mph - N/A   Partly Cloudy
11:54 PM 53.1 °F - 48.0 °F 83% 30.37 in 10.0 mi SSE 6.9 mph - N/A   Partly Cloudy